Regional Weather Roundup
Issued by NWS

Home | Current Version | Previous Version | Text Only | Print | Product List | Glossary Off
Versions: 1 2 3 4 5 6 7 8 9 10 11 12 13 14 15 16 17 18 19 20 21 22 23 24 25 26 27 28 29 30 31 32 33 34 35 36 37 38 39 40 41 42 43 44 45 46 47 48 49 50

000
ASUS43 KBIS 262131
RWRND
NORTH DAKOTA REGIONAL WEATHER ROUNDUP
NATIONAL WEATHER SERVICE EASTERN NORTH DAKOTA/GRAND FORKS ND
400 PM CDT FRI MAY 26 2017

  NOTE: "FAIR" INDICATES FEW OR NO CLOUDS BELOW 12,000 FEET WITH NO
  SIGNIFICANT WEATHER AND/OR OBSTRUCTIONS TO VISIBILITY.

NDZ001>003-009>011-017-262200-
...NORTHWEST NORTH DAKOTA...

CITY           SKY/WX    TMP DP  RH WIND       PRES   REMARKS
WILLISTON      CLOUDY    68  33  27 NW21G32   29.77S
MINOT          CLOUDY    68  41  37 W20G28    29.72S
MINOT AFB      PTSUNNY   64  41  43 NW20G25   29.71R
$$

NDZ018>021-031>035-040>046-262200-
...SOUTHWEST NORTH DAKOTA...

CITY           SKY/WX    TMP DP  RH WIND       PRES   REMARKS
BISMARCK       CLOUDY    66  41  40 NW12      29.79R
DICKINSON      PTSUNNY   67  32  27 W20G30    29.80S
GARRISON         N/A     62  38  40 NW20      29.75S
HETTINGER      PTSUNNY   67  36  31 NW18G28   29.85S
$$

NDZ004>008-012>016-024-026-027-054-262200-
...NORTHEAST NORTH DAKOTA...

CITY           SKY/WX    TMP DP  RH WIND       PRES   REMARKS
GRAND FORKS    PTSUNNY   70  46  42 W17       29.69S
GRAND FORKS AF PTSUNNY   65  44  46 W8        29.70S
DEVILS LAKE    PTSUNNY   65  45  48 W24       29.70S
$$

NDZ022-023-025-028>030-036>039-047>053-262200-
...SOUTHEAST NORTH DAKOTA...

CITY           SKY/WX    TMP DP  RH WIND       PRES   REMARKS
JAMESTOWN      CLOUDY    63  43  48 W16G23    29.75S
FARGO          FAIR      69  43  38 W17G24    29.72R
WAHPETON       FAIR      70  41  35 W18G24    29.74S
$$




USA.gov is the U.S. government's official web portal to all federal, state and local government web resources and services.